Weather History for KMHT - October, 2012

Change the Weather History Date:

Saturday, October 27, 2012

  Actual Average Record
Temperature  
Mean Temperature 56 °F -  
Max Temperature 66 °F 57 °F 82 °F (1963)
Min Temperature 46 °F 32 °F 22 °F (1950)
Degree Days  
Heating Degree Days 9    
Growing Degree Days 6 (Base 50)    
Moisture  
Dew Point 48 °F    
Average Humidity 86    
Maximum Humidity 100    
Minimum Humidity 60    
Precipitation  
Precipitation 0.00 in - - ()
Sea Level Pressure  
Sea Level Pressure 30.08 in    
Wind  
Wind Speed 1 mph (NNE)    
Max Wind Speed 7 mph    
Max Gust Speed -    
Visibility 5 miles    
Events Fog    
Averages and records for this station are not official NWS values.
T = Trace of Precipitation, MM = Missing Value Source: NWS Daily Summary

Daily Weather History Graph

Daily Weather History Graph

Search for Another Location

Airport or City:

Trip Planner

Search our weather history database for the weather conditions in past years. The results will help you decide how hot, cold, wet, or windy it might be!

Date:

Astronomy

Oct. 27, 2012 Rise Set
Actual Time 7:14 AM EDT 5:44 PM EDT
Civil Twilight 6:45 AM EDT 6:13 PM EDT
Nautical Twilight 6:11 AM EDT 6:46 PM EDT
Astronomical Twilight 5:39 AM EDT 7:19 PM EDT
Moon 4:30 PM EDT (10/27) 5:04 AM EDT (10/27)
Length of Visible Light 11h 28m
Length of Day
10h 29m
Waxing Gibbous, 96% of the Moon is Illuminated
Oct 27
Waxing Gibbous
Oct 29
Full
Nov 6
Last Quarter
Nov 13
New
Nov 20
First Quarter

Hourly Weather History & Observations

Time (EDT) Temp. Windchill Dew Point Humidity Pressure Visibility Wind Dir Wind Speed Gust Speed Precip Events Conditions
12:53 AM 50.0 °F - 46.9 °F 89% 30.14 in 10.0 mi Calm Calm - N/A   Clear
1:16 AM 48.2 °F - 46.4 °F 93% 30.10 in 7.0 mi Calm Calm - N/A   Scattered Clouds
1:45 AM 48.2 °F - 46.4 °F 93% 30.09 in 5.0 mi Calm Calm - N/A   Mostly Cloudy
1:53 AM 48.0 °F - 46.0 °F 93% 30.13 in 3.0 mi Calm Calm - N/A   Mostly Cloudy
2:17 AM 48.2 °F - 46.4 °F 93% 30.09 in 3.0 mi Calm Calm - N/A   Mostly Cloudy
2:25 AM 46.4 °F - 46.4 °F 100% 30.09 in 2.0 mi Calm Calm - N/A   Mostly Cloudy
2:53 AM 48.0 °F - 46.0 °F 93% 30.13 in 2.0 mi Calm Calm - N/A   Mostly Cloudy
3:19 AM 46.4 °F - 46.4 °F 100% 30.08 in 0.5 mi Calm Calm - N/A Fog Fog
3:25 AM 46.4 °F - 46.4 °F 100% 30.08 in 0.2 mi Calm Calm - N/A Fog Fog
3:39 AM 46.4 °F - 46.4 °F 100% 30.07 in 0.2 mi Calm Calm - N/A Fog Fog
3:53 AM 46.9 °F - 46.9 °F 100% 30.11 in 0.2 mi Calm Calm - N/A Fog Fog
4:53 AM 46.9 °F - 46.9 °F 100% 30.11 in 0.2 mi Calm Calm - N/A Fog Fog
5:53 AM 46.9 °F - 46.9 °F 100% 30.09 in 0.2 mi NNW 4.6 mph - N/A Fog Fog
6:53 AM 46.9 °F - 46.0 °F 97% 30.10 in 0.2 mi Variable 3.5 mph - N/A Fog Fog
7:46 AM 46.4 °F 44.3 °F 46.4 °F 100% 30.07 in 0.2 mi NNE 4.6 mph - N/A Fog Fog
7:53 AM 46.9 °F - 46.0 °F 97% 30.12 in 0.2 mi NNE 4.6 mph - N/A Fog Fog
8:01 AM 46.4 °F 44.3 °F 46.4 °F 100% 30.07 in 0.5 mi NNE 4.6 mph - N/A Fog Fog
8:38 AM 48.2 °F - 46.4 °F 93% 30.08 in 1.0 mi North 3.5 mph - N/A   Overcast
8:53 AM 48.0 °F - 46.9 °F 96% 30.13 in 1.0 mi North 3.5 mph - N/A   Overcast
9:27 AM 48.2 °F - 46.4 °F 93% 30.09 in 2.5 mi Calm Calm - N/A   Overcast
9:38 AM 48.2 °F - 46.4 °F 93% 30.09 in 2.5 mi Calm Calm - N/A   Overcast
9:53 AM 50.0 °F - 48.0 °F 93% 30.13 in 2.5 mi Calm Calm - N/A   Overcast
10:03 AM 51.8 °F - 48.2 °F 88% 30.09 in 4.0 mi Calm Calm - N/A   Overcast
10:21 AM 53.6 °F - 48.2 °F 82% 30.08 in 4.0 mi Calm Calm - N/A   Haze
10:33 AM 53.6 °F - 48.2 °F 82% 30.08 in 10.0 mi Calm Calm - N/A   Scattered Clouds
10:53 AM 57.2 °F - 48.2 °F 72% 30.07 in 10.0 mi Calm Calm - N/A   Clear
11:53 AM 61.0 °F - 50.0 °F 67% 30.10 in 10.0 mi Calm Calm - N/A   Partly Cloudy
12:25 PM 64.4 °F - 51.8 °F 64% 30.03 in 10.0 mi Calm Calm - N/A   Mostly Cloudy
12:53 PM 64.9 °F - 51.1 °F 61% 30.06 in 10.0 mi NNE 3.5 mph - N/A   Mostly Cloudy
1:53 PM 64.0 °F - 51.1 °F 63% 30.05 in 10.0 mi SSW 3.5 mph - N/A   Mostly Cloudy
2:53 PM 66.0 °F - 52.0 °F 60% 30.04 in 10.0 mi East 3.5 mph - N/A   Mostly Cloudy
3:53 PM 66.0 °F - 52.0 °F 60% 30.04 in 10.0 mi Variable 5.8 mph - N/A   Mostly Cloudy
4:53 PM 63.0 °F - 52.0 °F 67% 30.04 in 10.0 mi East 6.9 mph - N/A   Scattered Clouds
5:53 PM 60.1 °F - 51.1 °F 72% 30.05 in 10.0 mi East 6.9 mph - N/A   Partly Cloudy
6:53 PM 57.0 °F - 50.0 °F 77% 30.07 in 10.0 mi Calm Calm - N/A   Mostly Cloudy
7:53 PM 55.0 °F - 50.0 °F 83% 30.08 in 10.0 mi Calm Calm - N/A   Overcast
8:53 PM 54.0 °F - 48.9 °F 83% 30.09 in 10.0 mi Calm Calm - N/A   Overcast
9:53 PM 54.0 °F - 48.0 °F 80% 30.08 in 10.0 mi NNE 4.6 mph - N/A   Overcast
10:53 PM 54.0 °F - 46.0 °F 75% 30.08 in 10.0 mi NNE 4.6 mph - N/A   Overcast
11:53 PM 53.6 °F - 44.6 °F 72% 30.02 in 10.0 mi North 5.8 mph - N/A   Overcast